Simultaneous Nadir Overpasses (SNOs) Predictions

Prediction of SNOs between GOES-17 and NOAA-19 Satellite Orbit:

Table of predicted SNOs for the next 14.0 days since TLE Epoch: 10/24/2020
Index Date Time (GOES-17) GOES-17 Lat,Lon NOAA-19 Lat,Lon Distance(km) Time Diff (sec)
1 10/26/2020 03:32:23 0.03,-137.21 -0.46,-139.43 253.26 80
2 10/27/2020 03:23:21 0.02,-137.21 0.19,-136.57 73.51 80
3 10/28/2020 03:11:38 0.02,-137.21 0.84,-133.71 400.16 80
4 10/29/2020 15:41:29 -0.03,-137.21 0.95,-141.49 487.14 80
5 10/30/2020 15:29:46 -0.02,-137.21 0.31,-138.62 160.80 80
6 10/31/2020 15:20:44 -0.02,-137.21 -0.34,-135.76 165.40 80
7 11/01/2020 15:09:02 -0.02,-137.21 -1.03,-132.91 491.36 80
8 11/03/2020 03:39:09 0.02,-137.20 -0.78,-140.75 405.24 80
9 11/04/2020 03:27:27 0.02,-137.19 -0.12,-137.89 79.74 80
10 11/05/2020 03:18:25 0.02,-137.18 0.53,-135.03 245.63 80
